Location: Abundant Grace Fellowship
(35.0349°N, 90.0924°W)
Time: 23:18:27
(UTC+00:00)

Cosmos 1833 Rocket - Pass Details

Date: 18 January 2026
Orbit: 832 x 838 km, 71.0° (Epoch: 13 February)

Event Time Altitude Azimuth Distance (km) Brightness Sun altitude
Exits shadow 11:09:03 51° 239° (WSW) 1,036 2.8 -23.9°
Drops below altitude 10° 11:14:05 10° 179° (S) 2,432 5.2 -22.9°
Sets 11:16:33 0° 174° (S) 3,361 6.0 -22.4°
